09:19
Airports
History
Links
Donate
Help keep this website running!
PayPal
Bitcoin
Information on this page is community maintained and may be outdated or inaccurate and is intended for reference only or PC simulator navigating.
Always use approved charts for navigating.
VT48
Fairholt
Fairholt (VT48)
Burlington, Vermont, United States (5401)
4
Lat/Lng:44° 27' 41.18" N / 73° 11' 45.46" W
44.461438 / -73.19596
Elevation:350'ft 107mMSL
ID / ICAO:VT48
Runways:1
Longest:(02-20) 338.0m 1,109ft Grass
Distance To
Airport ID:
Nearby VORs <50NM
Nearby NDBs
Nearby WeatherUpdated 05-26-17 08:54 GMT
Nearby weather at KBTV, Burlington Intl located 2.2 nautical miles from VT48
Altimeter: 29.56
Visibility: 10.0 statute miles
Wind: 0 knots (000°)
Temp: 13°c 55°f
Humidity: 93.6%

METAR: KBTV 260854Z 00000KT 10SM OVC035 13/12 A2956 RMK AO2 SLP011 T01280117 56015

(Powered by phpweather)
Runway 02 / 20
Dimensions:338 x 15.2m 1109' x 50'ft
Surface:Grass
Runway 02 [A]Runway 20 [B]
Heading:005°TH 185°TH
Lat:
Lng:
44° 27' 35.77"N
73° 11' 46.12"W
44° 27' 46.59"N
73° 11' 44.79"W
User Notes and Comments
Google Map
Nearby Airports
(C) Burlington Intl 2.2 NM
KBTV (WX) ENE 70°
(R) Sky Acres 3.4 NM
VT25 SSE 154°
(R) Shelburne Farms 5.4 NM
VT22 SW 220°
(R) Bostwick Farm 6.8 NM
VT23 SSW 203°
4 Shelburne 7.3 NM
9B3 SSW 197°
(R) Davis Pvt 11.4 NM
VT45 ENE 70°
(R) E.a.deeds Farm 12.5 NM
VT12 SSW 200°
VFR Chart
Flight Planning at SkyVector.com